period_start,C,m1,H,J0,J1,J2,J3,J4,J5,JA,JB,JC,JD,JJ,JK,JN,#
2015-06-27 00:00:59,-0.01,0.00,0.00,23.75,27.57,30.21,4.77,26.63,1005.27,2037.98,3494.98,3319.99,3613.84,350.40,343.25,3.84,0000 0000 0000 0000 000000
2015-06-27 00:06:01,0.00,0.00,0.00,23.74,27.57,30.20,4.67,26.62,1005.35,2037.98,3494.96,3319.99,3613.76,350.24,343.31,3.87,0000 0000 0000 0000 000000
2015-06-27 00:11:02,0.00,0.00,0.00,23.75,27.57,30.21,4.63,26.65,1005.39,2037.98,3494.92,3319.98,3613.67,349.96,343.05,3.90,0000 0000 0000 0000 000000
2015-06-27 00:16:03,-0.00,0.00,0.00,23.75,27.57,30.24,4.67,26.68,1005.39,2037.98,3494.90,3319.98,3613.45,349.98,343.17,3.93,0000 0000 0000 0000 000000
2015-06-27 00:21:05,0.00,0.00,0.00,23.75,27.57,30.23,4.73,26.53,1005.39,2037.98,3494.93,3319.98,3613.43,350.75,343.62,3.96,0000 0000 0000 0000 000000
2015-06-27 00:26:06,-0.00,0.00,0.00,23.77,27.57,30.21,4.74,26.56,1005.39,2037.98,3494.91,3319.98,3613.45,350.11,343.10,3.99,0000 0000 0000 0000 000000
2015-06-27 00:31:07,0.00,0.00,0.00,23.77,27.57,30.22,4.72,26.52,1005.39,2037.98,3494.93,3319.99,3613.34,349.86,342.95,4.02,0000 0000 0000 0000 000000
2015-06-27 00:36:09,0.00,0.00,0.00,23.75,27.57,30.22,4.81,26.69,1005.39,2037.99,3494.95,3319.98,3613.29,349.85,342.97,4.05,0000 0000 0000 0000 000000
2015-06-27 00:41:10,0.00,0.00,0.00,23.77,27.57,30.22,4.78,26.67,1005.39,2037.98,3494.80,3319.98,3613.17,350.50,343.44,4.08,0000 0000 0000 0000 000000
2015-06-27 00:46:11,-0.00,0.00,0.00,23.77,27.58,30.22,4.68,26.63,1005.41,2037.97,3494.77,3319.98,3613.41,349.91,342.83,4.11,0000 0000 0000 0000 000000
2015-06-27 00:51:12,0.00,0.00,0.00,23.77,27.58,30.23,4.77,26.62,1005.56,2037.99,3494.75,3319.98,3613.28,350.22,343.31,4.14,0000 0000 0000 0000 000000
2015-06-27 00:56:13,0.01,0.00,0.00,23.77,27.58,30.23,4.75,26.64,1005.75,2037.99,3494.63,3319.97,3613.18,350.08,343.22,4.17,0000 0000 0000 0000 000000
2015-06-27 01:01:14,-0.00,0.00,0.00,23.77,27.58,30.28,4.76,26.64,1005.63,2037.98,3494.59,3319.97,3613.16,350.09,343.18,4.19,0000 0000 0000 0000 000000
2015-06-27 01:06:16,-0.00,0.00,0.00,23.77,27.58,30.23,4.75,26.67,1005.68,2037.97,3494.42,3319.96,3613.07,350.33,343.38,4.22,0000 0000 0000 0000 000000
2015-06-27 01:11:17,0.00,0.00,0.00,23.77,27.58,30.21,4.65,26.50,1005.86,2037.99,3494.43,3319.99,3613.21,350.20,343.15,4.25,0000 0000 0000 0000 000000
2015-06-27 01:16:18,0.00,0.00,0.00,23.77,27.58,30.22,4.79,26.61,1005.87,2037.99,3494.31,3319.96,3613.13,350.25,343.19,4.28,0000 0000 0000 0000 000000
2015-06-27 01:21:20,0.00,0.00,0.00,23.77,27.59,30.25,4.76,26.57,1005.87,2037.99,3494.28,3319.97,3613.20,350.38,343.50,4.31,0000 0000 0000 0000 000000
2015-06-27 01:26:21,-0.00,0.00,0.00,23.79,27.59,30.24,4.71,26.56,1005.87,2037.99,3494.24,3319.97,3613.13,349.80,343.03,4.34,0000 0000 0000 0000 000000
2015-06-27 01:31:22,0.00,0.00,0.00,23.80,27.59,30.21,4.79,26.57,1005.87,2037.99,3494.38,3319.97,3613.11,350.12,343.08,4.37,0000 0000 0000 0000 000000
2015-06-27 01:36:23,-0.00,0.00,0.00,23.81,27.59,30.22,4.66,26.56,1005.86,2037.99,3494.26,3319.97,3613.17,349.90,343.00,4.40,0000 0000 0000 0000 000000
2015-06-27 01:41:25,0.01,0.00,0.00,23.82,27.59,30.24,4.78,26.65,1005.86,2037.98,3494.12,3319.96,3613.05,350.56,343.61,4.43,0000 0000 0000 0000 000000
2015-06-27 01:46:26,-0.00,0.00,0.00,23.84,27.60,30.22,4.61,26.63,1005.86,2037.99,3494.17,3319.95,3613.02,349.74,342.77,4.46,0000 0000 0000 0000 000000
2015-06-27 01:51:27,0.00,0.00,0.00,23.86,27.60,30.19,4.71,26.67,1005.87,2037.99,3494.10,3319.91,3613.02,350.36,343.50,4.49,0000 0000 0000 0000 000000
2015-06-27 01:56:28,0.01,0.00,0.00,23.88,27.60,30.17,4.71,26.56,1005.87,2037.98,3494.06,3319.76,3613.00,350.00,343.09,4.52,0000 0000 0000 0000 000000
2015-06-27 02:01:30,0.01,0.00,0.00,23.90,27.60,30.15,4.64,26.45,1005.88,2037.99,3494.01,3319.60,3613.00,349.59,342.57,4.55,0000 0000 0000 0000 000000
2015-06-27 02:06:31,0.00,0.00,0.00,23.93,27.60,30.15,4.69,26.50,1005.88,2037.99,3494.03,3319.55,3613.00,350.28,343.17,4.58,0000 0000 0000 0000 000000
2015-06-27 02:11:32,0.00,0.00,0.00,23.96,27.60,30.14,4.61,26.40,1005.88,2037.99,3494.03,3319.47,3613.00,349.62,342.69,4.60,0000 0000 0000 0000 000000
2015-06-27 02:16:33,-0.00,0.00,0.00,23.97,27.61,30.15,4.73,26.52,1005.88,2037.98,3494.03,3319.53,3613.00,350.03,343.01,4.63,0000 0000 0000 0000 000000
2015-06-27 02:21:34,0.01,0.00,0.00,23.98,27.62,30.15,4.63,26.48,1005.88,2037.98,3494.01,3319.19,3613.00,349.85,342.61,4.66,0000 0000 0000 0000 000000
2015-06-27 02:26:36,-0.00,0.00,0.00,24.00,27.62,30.14,4.72,26.44,1005.89,2037.97,3494.00,3319.09,3613.00,349.85,342.80,4.69,0000 0000 0000 0000 000000
2015-06-27 02:31:37,0.00,0.00,0.00,24.03,27.62,30.12,4.76,26.55,1005.89,2037.96,3494.00,3319.03,3612.99,350.71,343.34,4.72,0000 0000 0000 0000 000000
2015-06-27 02:36:38,-0.00,0.00,0.00,24.05,27.62,30.14,4.82,26.68,1005.88,2037.97,3494.00,3319.05,3612.99,350.17,342.98,4.75,0000 0000 0000 0000 000000
2015-06-27 02:41:39,-0.00,0.00,0.00,24.06,27.64,30.14,4.68,26.55,1005.87,2037.93,3494.00,3319.02,3612.98,350.05,342.92,4.78,0000 0000 0000 0000 000000
2015-06-27 02:46:40,-0.01,0.00,0.00,24.07,27.65,30.13,4.73,26.59,1005.90,2037.85,3493.99,3319.00,3612.96,350.18,343.17,4.81,0000 0000 0000 0000 000000
2015-06-27 02:51:42,-0.01,0.00,0.00,24.08,27.65,30.14,4.77,26.57,1006.07,2037.81,3493.99,3319.01,3612.91,350.61,343.41,4.84,0000 0000 0000 0000 000000
2015-06-27 02:56:43,-0.00,0.00,0.00,24.09,27.65,30.15,4.69,26.59,1005.95,2037.81,3493.99,3319.00,3612.85,349.82,342.64,4.87,0000 0000 0000 0000 000000
2015-06-27 03:01:44,-0.02,0.00,0.00,24.10,27.66,30.16,4.78,26.66,1005.91,2037.56,3493.97,3319.00,3612.50,350.29,342.91,4.90,0000 0000 0000 0000 000000
2015-06-27 03:06:45,-0.01,0.00,0.00,24.11,27.67,30.16,4.70,26.52,1005.91,2037.37,3493.88,3318.99,3612.26,349.91,342.53,4.93,0000 0000 0000 0000 000000
2015-06-27 03:11:47,0.04,0.00,0.00,24.13,27.67,30.14,4.78,26.52,1005.87,2037.72,3493.95,3318.99,3612.54,350.51,343.09,4.96,0000 0000 0000 0000 000000
2015-06-27 03:16:48,-0.03,0.00,0.00,24.15,27.67,30.17,4.67,26.57,1005.87,2037.53,3493.89,3318.99,3612.19,350.55,343.08,4.99,0000 0000 0000 0000 000000
2015-06-27 03:21:49,-0.02,0.00,0.00,24.15,27.69,30.17,4.74,26.52,1005.87,2037.35,3493.83,3318.99,3612.06,350.17,342.75,5.01,0000 0000 0000 0000 000000
2015-06-27 03:26:50,-0.01,0.00,0.00,24.17,27.70,30.17,4.74,26.61,1005.92,2037.30,3493.66,3318.97,3612.06,350.25,342.97,5.04,0000 0000 0000 0000 000000
2015-06-27 03:31:52,-0.01,0.00,0.00,24.17,27.70,30.18,4.69,26.59,1005.93,2037.13,3493.43,3318.97,3612.01,350.28,342.79,5.07,0000 0000 0000 0000 000000
2015-06-27 03:36:53,0.01,0.00,0.00,24.20,27.71,30.19,4.59,26.62,1006.00,2037.08,3493.12,3318.93,3612.00,349.60,342.12,5.10,0000 0000 0000 0000 000000
2015-06-27 03:41:54,-0.01,0.00,0.00,24.22,27.72,30.17,4.69,26.57,1006.06,2037.03,3493.05,3318.81,3612.00,350.52,343.24,5.13,0000 0000 0000 0000 000000
2015-06-27 03:46:55,0.01,0.00,0.00,24.23,27.72,30.20,4.66,26.52,1006.28,2037.04,3493.04,3318.68,3612.00,349.78,342.57,5.16,0000 0000 0000 0000 000000
2015-06-27 03:51:56,0.01,0.00,0.00,24.24,27.72,30.21,4.67,26.47,1006.36,2037.02,3493.01,3318.42,3611.99,349.75,342.47,5.19,0000 0000 0000 0000 000000
2015-06-27 03:56:57,0.01,0.00,0.00,24.24,27.74,30.20,4.68,26.60,1006.30,2037.02,3493.00,3318.15,3611.98,349.86,342.53,5.22,0000 0000 0000 0000 000000
2015-06-27 04:01:58,0.00,0.00,0.00,24.26,27.75,30.20,4.70,26.63,1006.33,2037.02,3493.00,3318.06,3611.97,349.47,342.06,5.25,0000 0000 0000 0000 000000
2015-06-27 04:07:00,-0.00,0.00,0.00,24.27,27.75,30.21,4.66,26.53,1006.36,2037.00,3493.00,3318.02,3611.93,349.62,342.33,5.28,0000 0000 0000 0000 000000
2015-06-27 04:12:01,-0.00,0.00,0.00,24.28,27.76,30.21,4.74,26.52,1006.37,2037.00,3492.99,3318.02,3611.95,350.45,343.02,5.31,0000 0000 0000 0000 000000
2015-06-27 04:17:02,0.00,0.00,0.00,24.31,27.77,30.20,4.68,26.52,1006.37,2037.00,3492.98,3318.01,3611.82,349.74,342.60,5.34,0000 0000 0000 0000 000000
2015-06-27 04:22:03,0.00,0.00,0.00,24.32,27.77,30.20,4.76,26.67,1006.36,2037.00,3492.96,3318.00,3611.58,350.39,343.12,5.37,0000 0000 0000 0000 000000
2015-06-27 04:27:05,0.01,0.00,0.00,24.33,27.78,30.20,4.69,26.43,1006.37,2037.00,3492.87,3318.00,3611.19,350.30,343.00,5.40,0000 0000 0000 0000 000000
2015-06-27 04:32:06,0.00,0.00,0.00,24.35,27.80,30.20,4.70,26.52,1006.36,2037.00,3492.93,3318.00,3611.05,350.26,342.82,5.42,0000 0000 0000 0000 000000
2015-06-27 04:37:07,0.01,0.00,0.00,24.37,27.80,30.21,4.67,26.54,1006.40,2037.00,3492.63,3317.99,3611.03,350.18,342.76,5.45,0000 0000 0000 0000 000000
2015-06-27 04:42:08,0.00,0.00,0.00,24.37,27.81,30.22,4.74,26.60,1006.37,2036.99,3492.32,3317.97,3611.00,350.05,342.95,5.48,0000 0000 0000 0000 000000
2015-06-27 04:47:09,-0.00,0.00,0.00,24.38,27.82,30.22,4.68,26.59,1006.38,2036.99,3492.31,3317.96,3611.00,350.22,342.86,5.51,0000 0000 0000 0000 000000
2015-06-27 04:52:11,-0.00,0.00,0.00,24.40,27.82,30.23,4.68,26.39,1006.49,2036.97,3492.27,3317.94,3611.00,350.17,342.78,5.54,0000 0000 0000 0000 000000
2015-06-27 04:57:12,0.00,0.00,0.00,24.41,27.83,30.25,4.72,26.67,1006.63,2036.97,3492.17,3317.85,3610.99,350.01,342.61,5.57,0000 0000 0000 0000 000000
2015-06-27 05:02:13,0.00,0.00,0.00,24.42,27.85,30.25,4.67,26.63,1006.70,2036.95,3492.08,3317.69,3610.97,349.97,342.75,5.60,0000 0000 0000 0000 000000
2015-06-27 05:07:15,0.00,0.00,0.00,24.42,27.85,30.26,4.76,26.57,1006.82,2036.95,3492.06,3317.58,3610.97,350.18,342.96,5.63,0000 0000 0000 0000 000000
2015-06-27 05:12:16,0.01,0.00,0.00,24.43,27.86,30.26,4.66,26.63,1006.85,2036.93,3492.02,3317.39,3610.95,349.37,342.11,5.66,0000 0000 0000 0000 000000
2015-06-27 05:17:17,-0.02,0.00,0.00,24.45,27.87,30.27,4.73,26.63,1006.85,2036.78,3492.01,3317.19,3610.79,349.89,342.55,5.69,0000 0000 0000 0000 000000
2015-06-27 05:22:18,-0.03,0.00,0.00,24.45,27.87,30.29,4.67,26.51,1006.86,2036.47,3492.00,3317.07,3610.56,350.61,343.24,5.72,0000 0000 0000 0000 000000
2015-06-27 05:27:19,-0.01,0.00,0.00,24.45,27.88,30.31,4.63,26.38,1006.86,2036.39,3492.00,3317.03,3610.32,350.17,342.73,5.75,0000 0000 0000 0000 000000
2015-06-27 05:32:20,0.01,0.00,0.00,24.46,27.90,30.30,4.79,26.60,1006.88,2036.33,3492.00,3317.01,3610.15,350.50,343.10,5.78,0000 0000 0000 0000 000000
2015-06-27 05:37:21,-0.04,0.00,0.00,24.48,27.90,30.31,4.62,26.44,1006.88,2036.13,3491.99,3317.01,3610.01,349.46,342.04,5.81,0000 0000 0000 0000 000000
2015-06-27 05:42:23,0.00,0.00,0.00,24.50,27.90,30.31,4.67,26.51,1006.94,2036.05,3491.98,3317.00,3610.00,349.64,342.55,5.83,0000 0000 0000 0000 000000
2015-06-27 05:47:24,0.00,0.00,0.00,24.50,27.92,30.32,4.71,26.52,1007.15,2036.06,3491.98,3317.00,3610.00,350.34,343.10,5.86,0000 0000 0000 0000 000000
2015-06-27 05:52:25,-0.00,0.00,0.00,24.50,27.92,30.33,4.76,26.68,1007.17,2036.03,3491.97,3317.00,3610.00,350.19,342.95,5.89,0000 0000 0000 0000 000000
2015-06-27 05:57:26,0.00,0.00,0.00,24.50,27.92,30.35,4.77,26.60,1007.24,2036.01,3491.92,3316.98,3610.00,350.36,342.76,5.92,0000 0000 0000 0000 000000
2015-06-27 06:02:28,0.00,0.00,0.00,24.51,27.93,30.35,4.69,26.59,1007.33,2036.00,3491.75,3316.98,3609.99,349.49,342.41,5.95,0000 0000 0000 0000 000000
2015-06-27 06:07:29,0.01,0.00,0.00,24.51,27.95,30.36,4.77,26.51,1007.34,2036.01,3491.71,3316.98,3609.99,350.75,343.52,5.98,0000 0000 0000 0000 000000
2015-06-27 06:12:30,0.01,0.00,0.00,24.52,27.95,30.36,4.70,26.49,1007.35,2036.00,3491.18,3316.93,3609.97,350.13,343.01,6.01,0000 0000 0000 0000 000000
2015-06-27 06:17:31,0.00,0.00,0.00,24.52,27.95,30.38,4.71,26.52,1007.36,2036.00,3491.10,3316.87,3609.93,350.03,342.79,6.04,0000 0000 0000 0000 000000
2015-06-27 06:22:32,0.01,0.00,0.00,24.52,27.97,30.37,4.64,26.61,1007.35,2036.00,3491.05,3316.72,3609.84,349.72,342.64,6.07,0000 0000 0000 0000 000000
2015-06-27 06:27:33,0.01,0.00,0.00,24.55,27.97,30.37,4.72,26.54,1007.36,2036.00,3491.03,3316.58,3609.73,349.99,342.84,6.10,0000 0000 0000 0000 000000
2015-06-27 06:32:35,-0.01,0.00,0.00,24.55,27.97,30.39,4.71,26.57,1007.36,2036.00,3491.03,3316.62,3609.82,350.02,342.85,6.13,0000 0000 0000 0000 000000
2015-06-27 06:37:36,0.03,0.00,0.00,24.55,27.98,30.40,4.61,26.57,1007.36,2036.00,3491.01,3316.29,3609.54,349.18,342.04,6.16,0000 0000 0000 0000 000000
2015-06-27 06:42:37,-0.00,0.00,0.00,24.56,28.00,30.41,4.64,26.50,1007.52,2036.00,3491.00,3316.19,3609.30,349.83,342.50,6.19,0000 0000 0000 0000 000000
2015-06-27 06:47:39,0.01,0.00,0.00,24.56,28.00,30.40,4.66,26.50,1007.80,2036.00,3491.00,3316.07,3609.14,349.75,342.70,6.22,0000 0000 0000 0000 000000
2015-06-27 06:52:40,0.00,0.00,0.00,24.57,28.00,30.40,4.69,26.44,1007.83,2036.00,3491.00,3316.03,3609.05,350.04,343.08,6.24,0000 0000 0000 0000 000000
2015-06-27 06:57:41,-0.00,0.00,0.00,24.57,28.01,30.40,4.74,26.43,1007.82,2036.00,3491.00,3316.03,3609.07,350.32,343.10,6.27,0000 0000 0000 0000 000000
2015-06-27 07:02:42,0.00,0.00,0.00,24.57,28.02,30.42,4.71,26.62,1007.82,2035.99,3491.00,3316.01,3609.04,349.51,342.43,6.30,0000 0000 0000 0000 000000
2015-06-27 07:07:43,0.00,0.00,0.00,24.57,28.02,30.44,4.70,26.57,1007.83,2035.99,3490.99,3316.01,3609.01,350.08,343.02,6.33,0000 0000 0000 0000 000000
2015-06-27 07:12:44,0.00,0.00,0.00,24.57,28.02,30.45,4.67,26.44,1007.83,2035.99,3490.98,3316.00,3609.00,349.52,342.49,6.36,0000 0000 0000 0000 000000
2015-06-27 07:17:45,0.00,0.00,0.00,24.57,28.04,30.44,4.68,26.60,1007.82,2035.99,3490.99,3316.00,3609.00,349.78,342.78,6.39,0000 0000 0000 0000 000000
2015-06-27 07:22:47,0.00,0.00,0.00,24.58,28.05,30.46,4.74,26.66,1007.70,2035.99,3490.98,3316.00,3609.00,350.16,343.09,6.42,0000 0000 0000 0000 000000
2015-06-27 07:27:48,0.00,0.00,0.00,24.58,28.05,30.45,4.64,26.72,1007.76,2035.98,3490.90,3316.00,3609.00,349.50,342.24,6.45,0000 0000 0000 0000 000000
2015-06-27 07:32:49,0.00,0.00,0.00,24.58,28.05,30.46,4.70,26.68,1007.83,2035.98,3490.81,3316.00,3608.98,350.12,342.93,6.48,0000 0000 0000 0000 000000
2015-06-27 07:37:50,-0.00,0.00,0.00,24.57,28.05,30.46,4.70,26.82,1007.83,2035.95,3490.74,3315.99,3608.99,350.02,342.76,6.51,0000 0000 0000 0000 000000
2015-06-27 07:42:51,0.01,0.00,0.00,24.58,28.06,30.47,4.74,26.74,1007.83,2035.90,3490.34,3315.97,3608.95,350.40,343.25,6.54,0000 0000 0000 0000 000000
2015-06-27 07:47:52,0.01,0.00,0.00,24.59,28.07,30.48,4.69,26.81,1007.84,2035.89,3490.34,3315.97,3608.95,349.65,342.38,6.57,0000 0000 0000 0000 000000
2015-06-27 07:52:53,-0.00,0.00,0.00,24.57,28.07,30.48,4.68,26.73,1007.84,2035.89,3490.12,3315.97,3608.91,349.53,342.41,6.60,0000 0000 0000 0000 000000
2015-06-27 07:57:55,-0.00,0.00,0.00,24.57,28.07,30.49,4.71,26.82,1007.91,2035.81,3490.09,3315.89,3608.69,350.49,343.34,6.63,0000 0000 0000 0000 000000
2015-06-27 08:02:56,-0.03,0.00,0.00,24.57,28.07,30.51,4.72,26.67,1008.20,2035.63,3490.00,3315.79,3608.44,350.25,343.11,6.65,0000 0000 0000 0000 000000
2015-06-27 08:07:57,0.01,0.00,0.00,24.57,28.08,30.50,4.76,26.58,1008.29,2035.54,3490.00,3315.66,3608.37,350.05,343.10,6.68,0000 0000 0000 0000 000000
2015-06-27 08:12:58,-0.02,0.00,0.00,24.59,28.09,30.50,4.73,26.61,1008.29,2035.43,3490.00,3315.50,3608.19,350.16,343.19,6.71,0000 0000 0000 0000 000000
2015-06-27 08:17:59,0.03,0.00,0.00,24.60,28.10,30.51,4.67,26.58,1008.29,2035.42,3490.00,3315.45,3608.11,349.76,342.69,6.74,0000 0000 0000 0000 000000
2015-06-27 08:23:01,0.00,0.00,0.00,24.60,28.10,30.52,4.70,26.68,1008.29,2035.59,3490.01,3315.47,3608.18,350.15,343.13,6.77,0000 0000 0000 0000 000000
2015-06-27 08:28:02,-0.00,0.00,0.00,24.60,28.10,30.51,4.75,26.76,1008.31,2035.49,3490.00,3315.35,3608.04,350.22,343.37,6.80,0000 0000 0000 0000 000000
2015-06-27 08:33:03,-0.01,0.00,0.00,24.60,28.10,30.52,4.65,26.59,1008.31,2035.42,3490.00,3315.23,3608.06,350.00,343.09,6.83,0000 0000 0000 0000 000000
2015-06-27 08:38:04,-0.02,0.00,0.00,24.60,28.10,30.51,4.57,26.64,1008.31,2035.32,3489.99,3315.12,3608.03,349.63,342.63,6.86,0000 0000 0000 0000 000000
2015-06-27 08:43:05,0.02,0.00,0.00,24.60,28.10,30.53,4.72,26.60,1008.30,2035.29,3489.98,3315.10,3608.00,350.28,343.31,6.89,0000 0000 0000 0000 000000
2015-06-27 08:48:07,-0.03,0.00,0.00,24.60,28.12,30.53,4.68,26.67,1008.30,2035.27,3489.98,3315.06,3608.00,350.10,343.09,6.92,0000 0000 0000 0000 000000
2015-06-27 08:53:07,0.01,0.00,0.00,24.60,28.12,30.54,4.74,26.91,1008.28,2035.29,3489.99,3315.07,3608.01,350.53,343.51,6.95,0000 0000 0000 0000 000000
2015-06-27 08:58:09,-0.02,0.00,0.00,24.60,28.12,30.54,4.73,26.66,1008.31,2035.11,3489.98,3315.03,3608.01,350.09,343.28,6.98,0000 0000 0000 0000 000000
2015-06-27 09:03:10,0.01,0.00,0.00,24.59,28.12,30.56,4.75,26.71,1008.31,2035.21,3489.98,3315.04,3608.01,350.03,343.19,7.01,0000 0000 0000 0000 000000
2015-06-27 09:08:11,-0.01,0.00,0.00,24.58,28.12,30.54,4.71,26.86,1008.32,2035.13,3489.97,3315.02,3608.00,350.02,342.92,7.04,0000 0000 0000 0000 000000
2015-06-27 09:13:12,-0.02,0.00,0.00,24.59,28.12,30.56,4.74,26.70,1008.32,2035.05,3489.93,3315.00,3608.00,350.23,343.19,7.06,0000 0000 0000 0000 000000
2015-06-27 09:18:13,0.00,0.00,0.00,24.60,28.12,30.57,4.71,26.77,1008.33,2035.08,3489.94,3315.01,3608.00,350.20,343.14,7.09,0000 0000 0000 0000 000000
2015-06-27 09:23:15,0.01,0.00,0.00,24.58,28.12,30.58,4.68,26.81,1008.34,2035.08,3489.90,3315.01,3608.00,349.79,342.91,7.12,0000 0000 0000 0000 000000
2015-06-27 09:28:16,0.00,0.00,0.00,24.57,28.13,30.60,4.82,26.60,1008.34,2035.13,3489.85,3315.01,3608.00,350.32,343.20,7.15,0000 0000 0000 0000 000000
2015-06-27 09:33:17,-0.00,0.00,0.00,24.59,28.13,30.59,4.67,26.73,1008.33,2035.07,3489.62,3315.00,3608.00,350.16,342.89,7.18,0000 0000 0000 0000 000000
2015-06-27 09:38:19,0.00,0.00,0.00,24.59,28.14,30.58,4.83,26.83,1008.44,2035.03,3489.42,3315.00,3607.99,350.60,343.41,7.21,0000 0000 0000 0000 000000
2015-06-27 09:43:20,0.01,0.00,0.00,24.58,28.14,30.62,4.65,26.70,1008.65,2035.08,3489.20,3314.99,3607.99,349.96,342.98,7.24,0000 0000 0000 0000 000000
2015-06-27 09:48:21,-0.00,0.00,0.00,24.58,28.14,30.59,4.79,26.66,1008.71,2035.04,3489.25,3314.99,3607.98,350.19,343.41,7.27,0000 0000 0000 0000 000000
2015-06-27 09:53:23,0.00,0.00,0.00,24.59,28.14,30.61,4.65,26.58,1008.80,2035.02,3489.04,3314.98,3607.96,349.52,342.92,7.30,0000 0000 0000 0000 000000
2015-06-27 09:58:24,-0.00,0.00,0.00,24.60,28.15,30.58,4.69,26.63,1008.82,2035.03,3489.10,3314.99,3607.94,350.25,343.41,7.33,0000 0000 0000 0000 000000
2015-06-27 10:03:25,-0.01,0.00,0.00,24.60,28.15,30.59,4.67,26.70,1008.81,2035.03,3489.34,3314.99,3607.97,349.94,343.18,7.36,0000 0000 0000 0000 000000
2015-06-27 10:08:27,-0.00,0.00,0.00,24.60,28.15,30.58,4.75,26.77,1008.80,2035.03,3489.34,3314.99,3607.99,350.25,343.35,7.39,0000 0000 0000 0000 000000
2015-06-27 10:13:28,0.01,0.00,0.00,24.60,28.15,30.60,4.68,26.81,1008.82,2035.04,3489.30,3314.99,3607.97,349.97,343.23,7.42,0000 0000 0000 0000 000000
2015-06-27 10:18:29,0.00,0.00,0.00,24.60,28.15,30.58,4.66,26.82,1008.82,2035.01,3489.13,3314.99,3607.91,349.89,343.03,7.45,0000 0000 0000 0000 000000
2015-06-27 10:23:30,-0.00,0.00,0.00,24.60,28.15,30.58,4.58,26.68,1008.88,2035.01,3489.14,3314.99,3607.92,349.27,342.48,7.47,0000 0000 0000 0000 000000
2015-06-27 10:28:31,0.00,0.00,0.00,24.59,28.15,30.59,4.72,26.63,1009.06,2035.01,3489.07,3314.99,3607.86,349.97,343.48,7.50,0000 0000 0000 0000 000000
2015-06-27 10:33:32,0.01,0.00,0.00,24.59,28.15,30.59,4.62,26.57,1009.28,2035.01,3489.02,3314.98,3607.76,349.77,343.41,7.53,0000 0000 0000 0000 000000
2015-06-27 10:38:33,0.00,0.00,0.00,24.59,28.15,30.61,4.63,26.57,1009.29,2035.01,3489.01,3314.98,3607.67,350.11,343.38,7.56,0000 0000 0000 0000 000000
2015-06-27 10:43:35,-0.01,0.00,0.00,24.60,28.15,30.61,4.63,26.55,1009.29,2035.00,3489.02,3314.99,3607.70,349.42,342.78,7.59,0000 0000 0000 0000 000000
2015-06-27 10:48:36,0.00,0.00,0.00,24.60,28.15,30.61,4.64,26.56,1009.31,2035.01,3489.01,3314.98,3607.84,350.18,343.43,7.62,0000 0000 0000 0000 000000
2015-06-27 10:53:37,0.00,0.00,0.00,24.60,28.15,30.61,4.72,26.68,1009.33,2035.00,3489.00,3314.98,3607.51,349.98,343.78,7.65,0000 0000 0000 0000 000000
2015-06-27 10:58:38,-0.00,0.00,0.00,24.58,28.15,30.60,4.65,26.68,1009.33,2035.02,3489.02,3314.98,3607.65,349.87,343.25,7.68,0000 0000 0000 0000 000000
2015-06-27 11:03:39,-0.00,0.00,0.00,24.58,28.15,30.62,4.77,26.82,1009.45,2035.03,3489.03,3314.99,3607.91,350.58,343.90,7.71,0000 0000 0000 0000 000000
2015-06-27 11:08:40,0.00,0.00,0.00,24.57,28.15,30.65,4.71,26.73,1009.53,2035.03,3489.02,3314.99,3607.80,350.08,343.51,7.74,0000 0000 0000 0000 000000
2015-06-27 11:13:42,-0.00,0.00,0.00,24.56,28.15,30.65,4.72,26.82,1009.64,2035.01,3489.01,3314.99,3607.81,349.90,343.48,7.77,0000 0000 0000 0000 000000
2015-06-27 11:18:43,0.01,0.00,0.00,24.55,28.15,30.65,4.68,26.75,1009.55,2035.01,3489.00,3314.99,3607.53,349.95,343.54,7.80,0000 0000 0000 0000 000000
2015-06-27 11:23:44,-0.01,0.00,0.00,24.54,28.15,30.67,4.80,26.77,1009.70,2035.00,3489.00,3314.99,3607.49,350.55,344.05,7.83,0000 0000 0000 0000 000000
2015-06-27 11:28:45,0.01,0.00,0.00,24.55,28.15,30.67,4.59,26.49,1009.75,2035.03,3489.00,3314.98,3607.66,349.61,343.23,7.86,0000 0000 0000 0000 000000
2015-06-27 11:33:46,-0.00,0.00,0.00,24.55,28.15,30.66,4.74,26.57,1009.78,2035.04,3489.01,3314.99,3607.72,349.95,343.37,7.88,0000 0000 0000 0000 000000
2015-06-27 11:38:48,0.01,0.00,0.00,24.52,28.15,30.66,4.78,26.57,1009.78,2035.04,3489.00,3314.99,3607.51,350.31,344.08,7.91,0000 0000 0000 0000 000000
2015-06-27 11:43:49,-0.00,0.00,0.00,24.52,28.15,30.68,4.77,26.57,1009.81,2035.04,3489.01,3314.99,3607.63,350.03,343.86,7.94,0000 0000 0000 0000 000000
2015-06-27 11:48:51,0.00,0.00,0.00,24.52,28.15,30.66,4.74,26.53,1009.80,2035.03,3489.00,3314.99,3607.53,349.98,343.41,7.97,0000 0000 0000 0000 000000
2015-06-27 11:53:52,0.00,0.00,0.00,24.52,28.15,30.67,4.69,26.50,1009.81,2035.05,3489.00,3314.99,3607.62,350.31,343.83,8.00,0000 0000 0000 0000 000000
2015-06-27 11:58:53,-0.00,0.00,0.00,24.52,28.14,30.67,4.83,26.55,1009.79,2035.02,3489.00,3314.99,3607.52,350.20,343.62,8.03,0000 0000 0000 0000 000000
2015-06-27 12:03:55,0.00,0.00,0.00,24.50,28.13,30.70,4.71,26.53,1009.80,2035.05,3489.00,3314.99,3607.31,349.99,343.58,8.06,0000 0000 0000 0000 000000
2015-06-27 12:08:56,-0.01,0.00,0.00,24.50,28.13,30.66,4.71,26.44,1009.79,2035.05,3489.00,3314.99,3607.59,349.99,343.48,8.09,0000 0000 0000 0000 000000
2015-06-27 12:13:57,0.01,0.00,0.00,24.50,28.12,30.67,4.78,26.51,1009.78,2035.07,3489.00,3314.99,3607.42,350.36,343.71,8.12,0000 0000 0000 0000 000000
2015-06-27 12:18:58,-0.00,0.00,0.00,24.50,28.12,30.66,4.72,26.31,1009.78,2035.09,3489.00,3314.99,3607.47,349.69,343.31,8.15,0000 0000 0000 0000 000000
2015-06-27 12:23:59,0.01,0.00,0.00,24.50,28.12,30.68,4.71,26.48,1009.78,2035.11,3489.00,3314.99,3607.44,350.90,344.54,8.18,0000 0000 0000 0000 000000
2015-06-27 12:29:01,0.00,0.00,0.00,24.50,28.12,30.68,4.83,26.57,1009.78,2035.14,3488.99,3314.99,3607.56,350.82,344.41,8.21,0000 0000 0000 0000 000000
2015-06-27 12:34:02,0.00,0.00,0.00,24.49,28.12,30.66,4.76,26.51,1009.72,2035.14,3488.99,3314.99,3607.45,350.64,344.10,8.24,0000 0000 0000 0000 000000
2015-06-27 12:39:03,0.00,0.00,0.00,24.47,28.12,30.65,4.63,26.60,1009.69,2035.12,3488.98,3314.99,3607.20,349.81,343.45,8.27,0000 0000 0000 0000 000000
2015-06-27 12:44:04,0.02,0.00,0.00,24.47,28.12,30.68,4.73,26.41,1009.47,2035.27,3488.99,3314.99,3607.39,350.54,343.96,8.29,0000 0000 0000 0000 000000
2015-06-27 12:49:05,0.01,0.00,0.00,24.46,28.12,30.69,4.69,26.43,1009.44,2035.38,3488.99,3314.99,3607.40,349.54,343.11,8.32,0000 0000 0000 0000 000000
2015-06-27 12:54:06,-0.02,0.00,0.00,24.46,28.11,30.69,4.66,26.43,1009.46,2035.28,3488.98,3314.99,3607.25,349.82,343.44,8.35,0000 0000 0000 0000 000000
2015-06-27 12:59:07,0.01,0.00,0.00,24.45,28.10,30.64,4.76,26.46,1009.67,2035.32,3488.97,3314.99,3607.18,349.76,343.47,8.38,0000 0000 0000 0000 000000
2015-06-27 13:04:08,0.01,0.01,0.00,24.45,28.10,30.66,4.65,26.42,1009.74,2035.38,3488.94,3314.97,3607.08,350.15,343.93,8.41,0000 0000 0000 0000 000000